Time,TemperatureF,DewpointF,PressureIn,WindDirection,WindDirectionDegrees,WindSpeedMPH,WindSpeedGustMPH,Humidity,HourlyPrecipIn,Conditions,Clouds,dailyrainin,SoftwareType,DateUTC
2013-01-18 00:09:00,15.3,10.0,30.39,NNE,21,3.0,6.0,80,0.00,,,0.00,weatherlink.com 1.10,2013-01-18 06:09:00,
2013-01-18 00:24:00,15.3,11.0,30.38,NW,307,6.0,6.0,81,0.00,,,0.00,weatherlink.com 1.10,2013-01-18 06:24:00,
2013-01-18 00:39:00,15.3,11.0,30.38,NNW,330,3.0,6.0,82,0.00,,,0.00,weatherlink.com 1.10,2013-01-18 06:39:00,
2013-01-18 00:54:00,15.4,11.0,30.37,NNW,345,4.0,5.0,83,0.00,,,0.00,weatherlink.com 1.10,2013-01-18 06:54:00,
2013-01-18 01:10:00,15.3,11.0,30.35,NW,315,5.0,6.0,84,0.00,,,0.00,weatherlink.com 1.10,2013-01-18 07:10:00,
2013-01-18 01:25:00,15.2,12.0,30.33,WNW,300,4.0,7.0,85,0.00,,,0.00,weatherlink.com 1.10,2013-01-18 07:25:00,
2013-01-18 01:40:00,15.2,12.0,30.33,WNW,303,7.0,9.0,86,0.00,,,0.00,weatherlink.com 1.10,2013-01-18 07:40:00,
2013-01-18 01:55:00,15.2,12.0,30.32,WNW,300,3.0,6.0,87,0.00,,,0.00,weatherlink.com 1.10,2013-01-18 07:55:00,
2013-01-18 02:10:00,15.4,13.0,30.30,WNW,293,6.0,9.0,88,0.00,,,0.00,weatherlink.com 1.10,2013-01-18 08:10:00,
2013-01-18 02:25:00,15.6,13.0,30.29,NW,311,8.0,11.0,88,0.00,,,0.00,weatherlink.com 1.10,2013-01-18 08:25:00,
2013-01-18 02:40:00,15.9,13.0,30.29,WNW,302,6.0,11.0,88,0.00,,,0.00,weatherlink.com 1.10,2013-01-18 08:40:00,
2013-01-18 02:55:00,16.1,13.0,30.28,WNW,294,4.0,11.0,88,0.00,,,0.00,weatherlink.com 1.10,2013-01-18 08:55:00,
2013-01-18 03:10:00,16.2,13.0,30.27,WNW,301,5.0,10.0,88,0.00,,,0.00,weatherlink.com 1.10,2013-01-18 09:10:00,
2013-01-18 03:25:00,16.5,13.0,30.25,WNW,291,9.0,13.0,87,0.00,,,0.00,weatherlink.com 1.10,2013-01-18 09:25:00,
2013-01-18 03:40:00,16.7,14.0,30.23,NW,308,4.0,13.0,87,0.00,,,0.00,weatherlink.com 1.10,2013-01-18 09:40:00,
2013-01-18 03:55:00,17.0,14.0,30.22,WNW,288,3.0,13.0,87,0.00,,,0.00,weatherlink.com 1.10,2013-01-18 09:55:00,
2013-01-18 04:10:00,17.2,14.0,30.20,WNW,303,7.0,10.0,87,0.00,,,0.00,weatherlink.com 1.10,2013-01-18 10:10:00,
2013-01-18 04:25:00,17.5,14.0,30.18,WNW,294,8.0,8.0,86,0.00,,,0.00,weatherlink.com 1.10,2013-01-18 10:25:00,
2013-01-18 04:40:00,17.8,14.0,30.17,WNW,284,5.0,11.0,85,0.00,,,0.00,weatherlink.com 1.10,2013-01-18 10:40:00,
2013-01-18 04:55:00,18.2,14.0,30.16,North,353,7.0,13.0,84,0.00,,,0.00,weatherlink.com 1.10,2013-01-18 10:55:00,
2013-01-18 05:10:00,18.6,14.0,30.13,NW,312,6.0,15.0,83,0.00,,,0.00,weatherlink.com 1.10,2013-01-18 11:10:00,
2013-01-18 05:25:00,19.1,15.0,30.11,NNW,338,9.0,16.0,83,0.00,,,0.00,weatherlink.com 1.10,2013-01-18 11:25:00,
2013-01-18 05:40:00,19.6,16.0,30.10,NW,322,9.0,18.0,84,0.00,,,0.00,weatherlink.com 1.10,2013-01-18 11:40:00,
2013-01-18 05:55:00,19.7,16.0,30.08,NW,304,17.0,17.0,84,0.00,,,0.00,weatherlink.com 1.10,2013-01-18 11:55:00,
2013-01-18 06:11:00,20.2,16.0,30.07,NNW,345,5.0,16.0,85,0.00,,,0.00,weatherlink.com 1.10,2013-01-18 12:11:00,
2013-01-18 06:26:00,20.8,17.0,30.06,NNW,345,9.0,14.0,85,0.00,,,0.00,weatherlink.com 1.10,2013-01-18 12:26:00,
2013-01-18 06:41:00,21.5,18.0,30.04,North,349,13.0,15.0,85,0.00,,,0.00,weatherlink.com 1.10,2013-01-18 12:41:00,
2013-01-18 06:56:00,21.7,18.0,30.03,WNW,290,5.0,15.0,86,0.00,,,0.00,weatherlink.com 1.10,2013-01-18 12:56:00,
2013-01-18 07:11:00,22.0,19.0,30.02,NW,307,10.0,14.0,86,0.00,,,0.00,weatherlink.com 1.10,2013-01-18 13:11:00,
2013-01-18 07:26:00,22.0,19.0,30.01,NNE,25,1.0,11.0,86,0.00,,,0.00,weatherlink.com 1.10,2013-01-18 13:26:00,
2013-01-18 07:41:00,22.2,19.0,30.00,WNW,298,7.0,9.0,87,0.00,,,0.00,weatherlink.com 1.10,2013-01-18 13:41:00,
2013-01-18 07:56:00,22.5,20.0,29.99,NNW,328,7.0,10.0,88,0.00,,,0.00,weatherlink.com 1.10,2013-01-18 13:56:00,
2013-01-18 08:11:00,22.9,20.0,29.98,NNW,332,9.0,11.0,88,0.00,,,0.00,weatherlink.com 1.10,2013-01-18 14:11:00,
2013-01-18 08:26:00,23.4,21.0,29.97,NNW,334,8.0,9.0,89,0.00,,,0.00,weatherlink.com 1.10,2013-01-18 14:26:00,
2013-01-18 08:41:00,24.1,21.0,29.96,NE,37,3.0,9.0,89,0.00,,,0.00,weatherlink.com 1.10,2013-01-18 14:41:00,
2013-01-18 08:56:00,24.5,22.0,29.96,NNW,340,3.0,6.0,89,0.00,,,0.00,weatherlink.com 1.10,2013-01-18 14:56:00,
2013-01-18 09:11:00,26.5,23.0,29.95,NE,52,3.0,6.0,88,0.00,,,0.00,weatherlink.com 1.10,2013-01-18 15:11:00,
2013-01-18 09:26:00,27.3,25.0,29.96,ENE,73,3.0,7.0,89,0.00,,,0.00,weatherlink.com 1.10,2013-01-18 15:26:00,
2013-01-18 09:41:00,28.3,26.0,29.95,NNE,20,1.0,8.0,89,0.00,,,0.00,weatherlink.com 1.10,2013-01-18 15:41:00,
2013-01-18 09:58:00,29.2,26.0,29.95,NNE,26,10.0,10.0,88,0.00,,,0.00,weatherlink.com 1.10,2013-01-18 15:58:00,
2013-01-18 10:11:00,30.0,27.0,29.93,NNE,25,6.0,9.0,88,0.00,,,0.00,weatherlink.com 1.10,2013-01-18 16:11:00,
2013-01-18 10:26:00,31.1,27.0,29.93,NNE,22,5.0,11.0,86,0.00,,,0.00,weatherlink.com 1.10,2013-01-18 16:26:00,
2013-01-18 10:42:00,31.9,28.0,29.93,NE,41,6.0,9.0,85,0.00,,,0.00,weatherlink.com 1.10,2013-01-18 16:42:00,
2013-01-18 10:57:00,33.0,29.0,29.90,NNE,25,10.0,16.0,84,0.00,,,0.00,weatherlink.com 1.10,2013-01-18 16:57:00,
2013-01-18 11:12:00,34.0,29.0,29.90,NNE,13,11.0,11.0,82,0.00,,,0.00,weatherlink.com 1.10,2013-01-18 17:12:00,
2013-01-18 11:27:00,34.5,29.0,29.89,NNE,28,5.0,16.0,80,0.00,,,0.00,weatherlink.com 1.10,2013-01-18 17:27:00,
2013-01-18 11:42:00,34.8,29.0,29.88,NNE,27,6.0,13.0,79,0.00,,,0.00,weatherlink.com 1.10,2013-01-18 17:42:00,
2013-01-18 11:57:00,35.0,29.0,29.87,NE,56,7.0,12.0,79,0.00,,,0.00,weatherlink.com 1.10,2013-01-18 17:57:00,
2013-01-18 12:12:00,35.1,29.0,29.86,ENE,70,11.0,13.0,79,0.00,,,0.00,weatherlink.com 1.10,2013-01-18 18:12:00,
2013-01-18 12:27:00,35.2,29.0,29.85,ENE,60,6.0,12.0,79,0.00,,,0.00,weatherlink.com 1.10,2013-01-18 18:27:00,
2013-01-18 12:42:00,35.8,30.0,29.84,NE,34,8.0,12.0,78,0.00,,,0.00,weatherlink.com 1.10,2013-01-18 18:42:00,
2013-01-18 12:57:00,36.0,29.0,29.84,ENE,68,12.0,12.0,76,0.00,,,0.00,weatherlink.com 1.10,2013-01-18 18:57:00,
2013-01-18 13:12:00,35.9,29.0,29.83,NE,39,7.0,12.0,77,0.00,,,0.00,weatherlink.com 1.10,2013-01-18 19:12:00,
2013-01-18 13:27:00,36.0,29.0,29.83,NE,44,6.0,8.0,77,0.00,,,0.00,weatherlink.com 1.10,2013-01-18 19:27:00,
2013-01-18 13:42:00,36.3,29.0,29.85,ENE,69,6.0,8.0,76,0.00,,,0.00,weatherlink.com 1.10,2013-01-18 19:42:00,
2013-01-18 13:57:00,36.4,30.0,29.82,NE,50,5.0,8.0,76,0.00,,,0.00,weatherlink.com 1.10,2013-01-18 19:57:00,
2013-01-18 14:12:00,36.5,29.0,29.84,NE,39,7.0,10.0,75,0.00,,,0.00,weatherlink.com 1.10,2013-01-18 20:12:00,
2013-01-18 14:27:00,36.7,29.0,29.83,ENE,63,5.0,9.0,74,0.00,,,0.00,weatherlink.com 1.10,2013-01-18 20:27:00,
2013-01-18 14:42:00,36.6,29.0,29.83,East,80,6.0,7.0,73,0.00,,,0.00,weatherlink.com 1.10,2013-01-18 20:42:00,
2013-01-18 14:57:00,36.5,29.0,29.84,East,86,5.0,8.0,73,0.00,,,0.00,weatherlink.com 1.10,2013-01-18 20:57:00,
2013-01-18 15:12:00,36.1,29.0,29.84,ENE,71,4.0,7.0,75,0.00,,,0.00,weatherlink.com 1.10,2013-01-18 21:12:00,
2013-01-18 15:27:00,35.7,29.0,29.84,ENE,58,2.0,6.0,76,0.00,,,0.00,weatherlink.com 1.10,2013-01-18 21:27:00,
2013-01-18 15:42:00,35.3,29.0,29.84,NE,53,4.0,7.0,77,0.00,,,0.00,weatherlink.com 1.10,2013-01-18 21:42:00,
2013-01-18 15:57:00,35.1,29.0,29.84,ENE,64,4.0,7.0,77,0.00,,,0.00,weatherlink.com 1.10,2013-01-18 21:57:00,
2013-01-18 16:12:00,34.9,28.0,29.84,NE,49,6.0,7.0,77,0.00,,,0.00,weatherlink.com 1.10,2013-01-18 22:12:00,
2013-01-18 16:27:00,34.5,28.0,29.84,NE,52,4.0,6.0,78,0.00,,,0.00,weatherlink.com 1.10,2013-01-18 22:27:00,
2013-01-18 16:42:00,34.2,28.0,29.84,NE,51,3.0,5.0,79,0.00,,,0.00,weatherlink.com 1.10,2013-01-18 22:42:00,
2013-01-18 16:57:00,33.6,28.0,29.85,NE,56,2.0,4.0,79,0.00,,,0.00,weatherlink.com 1.10,2013-01-18 22:57:00,
2013-01-18 17:12:00,32.8,28.0,29.86,ENE,75,3.0,4.0,81,0.00,,,0.00,weatherlink.com 1.10,2013-01-18 23:12:00,
2013-01-18 17:27:00,32.1,27.0,29.86,ENE,59,2.0,4.0,82,0.00,,,0.00,weatherlink.com 1.10,2013-01-18 23:27:00,
2013-01-18 17:42:00,31.5,27.0,29.87,NE,52,3.0,4.0,82,0.00,,,0.00,weatherlink.com 1.10,2013-01-18 23:42:00,
2013-01-18 17:57:00,31.3,27.0,29.87,ENE,57,3.0,4.0,84,0.00,,,0.00,weatherlink.com 1.10,2013-01-18 23:57:00,
2013-01-18 18:12:00,30.4,26.0,29.87,NE,46,3.0,4.0,84,0.00,,,0.00,weatherlink.com 1.10,2013-01-19 00:12:00,
2013-01-18 18:27:00,29.8,26.0,29.88,ENE,57,2.0,2.0,86,0.00,,,0.00,weatherlink.com 1.10,2013-01-19 00:27:00,
2013-01-18 18:57:00,29.3,26.0,29.88,NE,48,3.0,3.0,87,0.00,,,0.00,weatherlink.com 1.10,2013-01-19 00:57:00,
2013-01-18 19:12:00,29.2,26.0,29.88,ENE,68,4.0,4.0,88,0.00,,,0.00,weatherlink.com 1.10,2013-01-19 01:12:00,
2013-01-18 19:42:00,28.8,26.0,29.87,NNE,29,3.0,3.0,88,0.00,,,0.00,weatherlink.com 1.10,2013-01-19 01:42:00,
2013-01-18 19:57:00,28.2,25.0,29.88,ENE,59,3.0,4.0,88,0.00,,,0.00,weatherlink.com 1.10,2013-01-19 01:57:00,
2013-01-18 20:13:00,27.8,25.0,29.88,NE,40,3.0,3.0,89,0.00,,,0.00,weatherlink.com 1.10,2013-01-19 02:13:00,
2013-01-18 20:27:00,27.3,25.0,29.88,NE,44,2.0,4.0,90,0.00,,,0.00,weatherlink.com 1.10,2013-01-19 02:27:00,
2013-01-18 20:43:00,27.3,25.0,29.88,ENE,68,5.0,5.0,90,0.00,,,0.00,weatherlink.com 1.10,2013-01-19 02:43:00,
2013-01-18 20:57:00,26.6,24.0,29.87,NE,37,3.0,5.0,89,0.00,,,0.00,weatherlink.com 1.10,2013-01-19 02:57:00,
2013-01-18 21:12:00,26.9,24.0,29.87,NE,46,3.0,4.0,90,0.00,,,0.00,weatherlink.com 1.10,2013-01-19 03:12:00,
2013-01-18 21:27:00,26.8,24.0,29.87,NNE,32,4.0,4.0,90,0.00,,,0.00,weatherlink.com 1.10,2013-01-19 03:27:00,
2013-01-18 21:42:00,26.5,24.0,29.86,NNE,26,4.0,6.0,91,0.00,,,0.00,weatherlink.com 1.10,2013-01-19 03:42:00,
2013-01-18 21:57:00,26.4,24.0,29.87,NE,45,5.0,5.0,92,0.00,,,0.00,weatherlink.com 1.10,2013-01-19 03:57:00,
2013-01-18 22:12:00,26.0,24.0,29.88,NE,56,4.0,6.0,92,0.00,,,0.00,weatherlink.com 1.10,2013-01-19 04:12:00,
2013-01-18 22:27:00,26.3,24.0,29.88,ENE,62,2.0,4.0,92,0.00,,,0.00,weatherlink.com 1.10,2013-01-19 04:27:00,
2013-01-18 22:42:00,26.2,24.0,29.88,NE,50,3.0,3.0,92,0.00,,,0.00,weatherlink.com 1.10,2013-01-19 04:42:00,
2013-01-18 22:57:00,26.2,24.0,29.88,NE,35,2.0,3.0,92,0.00,,,0.00,weatherlink.com 1.10,2013-01-19 04:57:00,
2013-01-18 23:12:00,26.1,24.0,29.87,NNE,33,3.0,3.0,93,0.00,,,0.00,weatherlink.com 1.10,2013-01-19 05:12:00,
2013-01-18 23:27:00,26.4,25.0,29.88,NE,34,2.0,4.0,93,0.00,,,0.00,weatherlink.com 1.10,2013-01-19 05:27:00,
2013-01-18 23:58:00,26.9,25.0,29.87,NNE,27,2.0,4.0,93,0.00,,,0.00,weatherlink.com 1.10,2013-01-19 05:58:00,